Weather History for Garden City, KS

Change the Weather History Date:

Monday, November 12, 2012

  Actual Average Record
Temperature  
Mean Temperature 33 °F 43 °F  
Max Temperature 51 °F 58 °F 79 °F (1971)
Min Temperature 15 °F 29 °F 9 °F (1986)
Degree Days  
Heating Degree Days 32 22  
Month to date heating degree days 180 228  
Since 1 July heating degree days 611 618  
Cooling Degree Days 0 0  
Month to date cooling degree days 0 0  
Year to date cooling degree days 1643 1298  
Moisture  
Dew Point 9 °F    
Average Humidity 49    
Maximum Humidity 84    
Minimum Humidity 14    
Precipitation  
Precipitation 0.00 in 0.02 in 0.68 in (1972)
Month to date precipitation 0.00 0.25  
Year to date precipitation 12.67 18.65  
Sea Level Pressure  
Sea Level Pressure 30.41 in    
Wind  
Wind Speed 6 mph (WSW)    
Max Wind Speed 13 mph    
Max Gust Speed 16 mph    
Visibility 10 miles    
Events      
T = Trace of Precipitation, MM = Missing Value Source: NWS Daily Summary

Daily Weather History Graph

Daily Weather History Graph

Search for Another Location

Airport:

Trip Planner

Search our weather history database for the weather conditions in past years. The results will help you decide how hot, cold, wet, or windy it might be!

Date:

Astronomy

Nov. 12, 2012 Rise Set
Actual Time 7:20 AM CST 5:33 PM CST
Civil Twilight 6:52 AM CST 6:00 PM CST
Nautical Twilight 6:21 AM CST 6:32 PM CST
Astronomical Twilight 5:50 AM CST 7:03 PM CST
Moon 5:49 AM CST (11/12) 4:39 PM CST (11/12)
Length of Visible Light 11h 08m
Length of Day
10h 12m
Waning Crescent, 2% of the Moon is Illuminated
Nov 12
Waning Crescent
Nov 13
New
Nov 20
First Quarter
Nov 28
Full
Dec 6
Last Quarter

Hourly Weather History & Observations

Time (CST) Temp. Windchill Dew Point Humidity Pressure Visibility Wind Dir Wind Speed Gust Speed Precip Events Conditions
12:54 AM 26.1 °F 21.9 °F 10.9 °F 53% 30.34 in 10.0 mi WNW 3.5 mph - N/A   Clear
1:54 AM 18.0 °F 12.7 °F 9.0 °F 68% 30.35 in 10.0 mi WSW 3.5 mph - N/A   Clear
2:54 AM 19.9 °F 13.4 °F 10.0 °F 65% 30.37 in 10.0 mi West 4.6 mph - N/A   Clear
3:54 AM 21.9 °F 15.7 °F 12.0 °F 66% 30.37 in 10.0 mi WSW 4.6 mph - N/A   Clear
4:54 AM 21.0 °F 13.4 °F 12.9 °F 71% 30.40 in 10.0 mi West 5.8 mph - N/A   Clear
5:54 AM 19.0 °F 11.1 °F 12.0 °F 74% 30.42 in 10.0 mi NNW 5.8 mph - N/A   Clear
6:54 AM 15.1 °F 7.7 °F 10.0 °F 80% 30.45 in 10.0 mi WNW 4.6 mph - N/A   Clear
7:54 AM 21.0 °F 12.4 °F 17.1 °F 85% 30.46 in 10.0 mi NNW 6.9 mph - N/A   Clear
8:54 AM 28.0 °F 20.8 °F 18.0 °F 66% 30.48 in 10.0 mi NW 6.9 mph - N/A   Clear
9:54 AM 35.1 °F 29.3 °F 16.0 °F 46% 30.47 in 10.0 mi North 6.9 mph - N/A   Clear
10:54 AM 41.0 °F 38.0 °F 9.0 °F 27% 30.47 in 10.0 mi North 4.6 mph - N/A   Clear
11:54 AM 44.1 °F - 9.0 °F 24% 30.45 in 10.0 mi Calm Calm - N/A   Clear
12:54 PM 46.0 °F 42.5 °F 9.0 °F 22% 30.42 in 10.0 mi SW 6.9 mph - N/A   Clear
1:54 PM 48.9 °F - 7.0 °F 18% 30.40 in 10.0 mi West 9.2 mph - N/A   Clear
2:54 PM 48.9 °F - 3.9 °F 16% 30.38 in 10.0 mi WSW 6.9 mph - N/A   Clear
3:54 PM 50.0 °F - 3.0 °F 15% 30.38 in 10.0 mi West 4.6 mph - N/A   Clear
4:54 PM 48.9 °F - 3.0 °F 15% 30.39 in 10.0 mi West 4.6 mph - N/A   Clear
5:54 PM 45.0 °F 42.6 °F 3.0 °F 18% 30.40 in 10.0 mi SSE 4.6 mph - N/A   Clear
6:54 PM 39.9 °F 35.8 °F 3.9 °F 22% 30.43 in 10.0 mi SSE 5.8 mph - N/A   Clear
7:54 PM 36.0 °F 30.3 °F 6.1 °F 29% 30.42 in 10.0 mi SSE 6.9 mph - N/A   Clear
8:54 PM 32.0 °F 26.4 °F 8.1 °F 37% 30.43 in 10.0 mi SSE 5.8 mph - N/A   Clear
9:54 PM 34.0 °F 28.0 °F 9.0 °F 35% 30.40 in 10.0 mi SSE 6.9 mph - N/A   Clear
10:54 PM 30.0 °F 22.4 °F 10.0 °F 43% 30.40 in 10.0 mi South 8.1 mph - N/A   Clear
11:54 PM 28.0 °F 21.7 °F 10.9 °F 49% 30.40 in 10.0 mi South 5.8 mph - N/A   Clear